Terminal Aerodrome Forecast
Issued by NWS

Home | Current Version | Previous Version | Text Only | Print | Product List | Glossary Off
Versions: 1 2 3 4 5 6 7 8 9 10 11 12 13

000
FTUS45 KGGW 220500
TAFGDV
TAF
KGDV 220527Z 2206/2306 10006KT P6SM BKN150
     FM221600 15015G23KT P6SM FEW120 SCT200
     FM222300 13023G29KT P6SM SCT120 BKN200
     FM230300 11019G26KT P6SM VCTS SCT090CB BKN120
      AMD LTD TO CLD VIS AND WIND=

USA.gov is the U.S. government's official web portal to all federal, state and local government web resources and services.